Weather History for New York JFK, NY

Change the Weather History Date:

Wednesday, March 27, 2013

  Actual Average Record
Temperature  
Mean Temperature 45 °F 45 °F  
Max Temperature 54 °F 52 °F 80 °F (1998)
Min Temperature 35 °F 37 °F 23 °F (2014)
Degree Days  
Heating Degree Days 20 20  
Month to date heating degree days 693 646  
Since 1 July heating degree days 4023 4157  
Cooling Degree Days 0 0  
Month to date cooling degree days 0 0  
Year to date cooling degree days 0 0  
Moisture  
Dew Point 22 °F    
Average Humidity 41    
Maximum Humidity 56    
Minimum Humidity 26    
Precipitation  
Precipitation 0.00 in 0.14 in 1.22 in (1983)
Month to date precipitation 2.20 3.26  
Year to date precipitation 7.32 9.01  
Snow  
Snow 0.00 in 0.10 in 0.00 in (2006)
Month to date snowfall 4.4 3.3  
Since 1 July snowfall 17.6 22.8  
Snow Depth 0.00 in    
Sea Level Pressure  
Sea Level Pressure 29.91 in    
Wind  
Wind Speed 15 mph (NW)    
Max Wind Speed 25 mph    
Max Gust Speed 31 mph    
Visibility 10 miles    
Events      
T = Trace of Precipitation, MM = Missing Value Source: NWS Daily Summary

Daily Weather History Graph

Daily Weather History Graph

Search for Another Location

Airport:

Trip Planner

Search our weather history database for the weather conditions in past years. The results will help you decide how hot, cold, wet, or windy it might be!

Date:

Astronomy

Mar. 27, 2013 Rise Set
Actual Time 6:46 AM EDT 7:14 PM EDT
Civil Twilight 6:19 AM EDT 7:42 PM EDT
Nautical Twilight 5:46 AM EDT 8:14 PM EDT
Astronomical Twilight 5:13 AM EDT 8:47 PM EDT
Moon 7:55 PM EDT (3/27) 6:35 AM EDT (3/27)
Length of Visible Light 13h 23m
Length of Day
12h 28m
Full, 100% of the Moon is Illuminated
Mar 27
Full
Apr 3
Last Quarter
Apr 10
New
Apr 18
First Quarter
Apr 25
Full

Hourly Weather History & Observations

Time (EDT) Temp. Windchill Dew Point Humidity Pressure Visibility Wind Dir Wind Speed Gust Speed Precip Events Conditions
12:51 AM 42.1 °F 36.1 °F 21.9 °F 45% 29.88 in 10.0 mi WNW 10.4 mph - N/A   Partly Cloudy
1:51 AM 41.0 °F 35.2 °F 24.1 °F 51% 29.88 in 10.0 mi WNW 9.2 mph - N/A   Partly Cloudy
2:51 AM 39.0 °F 31.8 °F 21.9 °F 50% 29.87 in 10.0 mi NW 11.5 mph - N/A   Partly Cloudy
3:51 AM 37.9 °F 30.9 °F 21.0 °F 51% 29.87 in 10.0 mi NNW 10.4 mph - N/A   Partly Cloudy
4:51 AM 37.9 °F 30.5 °F 21.0 °F 51% 29.88 in 10.0 mi NNW 11.5 mph - N/A   Partly Cloudy
5:51 AM 36.0 °F 29.0 °F 21.0 °F 55% 29.89 in 10.0 mi NW 9.2 mph - N/A   Partly Cloudy
6:51 AM 37.0 °F 28.9 °F 21.0 °F 52% 29.91 in 10.0 mi NW 12.7 mph - N/A   Scattered Clouds
7:51 AM 39.9 °F 32.9 °F 23.0 °F 51% 29.93 in 10.0 mi WNW 11.5 mph - N/A   Scattered Clouds
8:51 AM 43.0 °F 36.0 °F 25.0 °F 49% 29.93 in 10.0 mi NW 13.8 mph - N/A   Scattered Clouds
9:51 AM 45.0 °F 38.5 °F 25.0 °F 46% 29.93 in 10.0 mi NW 13.8 mph - N/A   Scattered Clouds
10:51 AM 46.9 °F - 26.1 °F 44% 29.92 in 10.0 mi NW 13.8 mph 20.7 mph N/A   Scattered Clouds
11:51 AM 48.9 °F - 24.1 °F 38% 29.91 in 10.0 mi NW 12.7 mph 21.9 mph N/A   Scattered Clouds
12:51 PM 51.1 °F - 21.0 °F 31% 29.91 in 10.0 mi WNW 12.7 mph 18.4 mph N/A   Mostly Cloudy
1:51 PM 50.0 °F - 17.1 °F 27% 29.89 in 10.0 mi NNW 15.0 mph 20.7 mph N/A   Mostly Cloudy
2:51 PM 53.1 °F - 19.9 °F 27% 29.88 in 10.0 mi WNW 15.0 mph 20.7 mph N/A   Mostly Cloudy
3:51 PM 51.1 °F - 19.0 °F 28% 29.87 in 10.0 mi NW 20.7 mph - N/A   Mostly Cloudy
4:51 PM 51.1 °F - 17.1 °F 26% 29.87 in 10.0 mi NW 17.3 mph 28.8 mph N/A   Mostly Cloudy
5:51 PM 52.0 °F - 19.9 °F 28% 29.88 in 10.0 mi WNW 19.6 mph 25.3 mph N/A   Scattered Clouds
6:51 PM 51.1 °F - 17.1 °F 26% 29.90 in 10.0 mi NW 19.6 mph 24.2 mph N/A   Scattered Clouds
7:51 PM 48.9 °F - 19.0 °F 31% 29.93 in 10.0 mi NW 16.1 mph - N/A   Scattered Clouds
8:51 PM 46.0 °F 38.5 °F 27.0 °F 47% 29.95 in 10.0 mi WNW 19.6 mph 27.6 mph N/A   Mostly Cloudy
9:51 PM 44.1 °F 36.2 °F 26.1 °F 49% 29.97 in 10.0 mi WNW 18.4 mph - N/A   Partly Cloudy
10:51 PM 43.0 °F 35.1 °F 26.1 °F 51% 29.97 in 10.0 mi NW 17.3 mph - N/A   Partly Cloudy
11:51 PM 42.1 °F 35.7 °F 27.0 °F 55% 29.98 in 10.0 mi NW 11.5 mph 21.9 mph N/A   Partly Cloudy